This is the latest recevied weather packets stored in our database for station/object F4ETJ-1. If no packets are shown the sender has not sent any weather packets the latest 10 day(s).
| Time | Temp. | Humidity | Pressure | Rain* | Wind** | Luminosity | Snow |
|---|---|---|---|---|---|---|---|
| 1787831872 | 22.22° C | 74% | 1007.3 hPa | 0 mm | - | - | - |
| 1787831511 | 22.22° C | 77% | 1007.4 hPa | 0 mm | - | - | - |
| 1787831151 | 22.22° C | 76% | 1007.6 hPa | 0 mm | - | - | - |
| 1787830791 | 22.22° C | 77% | 1007.6 hPa | 0 mm | - | - | - |
| 1787830430 | 22.22° C | 78% | 1007.7 hPa | 0 mm | - | - | - |
| 1787830070 | 22.22° C | 76% | 1007.9 hPa | 0 mm | - | - | - |
| 1787829710 | 22.22° C | 76% | 1007.7 hPa | 0 mm | - | - | - |
| 1787829349 | 22.22° C | 75% | 1007.6 hPa | 0 mm | - | - | - |
| 1787828989 | 22.22° C | 75% | 1007.7 hPa | 0 mm | - | - | - |
| 1787828629 | 22.22° C | 74% | 1007.6 hPa | 0 mm | - | - | - |
| 1787828268 | 22.22° C | 76% | 1007.5 hPa | 0 mm | - | - | - |
| 1787827908 | 22.22° C | 80% | 1007.5 hPa | 0 mm | - | - | - |
| 1787827548 | 21.67° C | 80% | 1007.9 hPa | 0 mm | - | - | - |
| 1787827187 | 21.67° C | 81% | 1007.9 hPa | 0 mm | - | - | - |
| 1787826827 | 21.67° C | 84% | 1008 hPa | 0 mm | - | - | - |
| 1787826467 | 21.67° C | 84% | 1007.7 hPa | 0.25 mm | - | - | - |
| 1787826106 | 21.67° C | 85% | 1007.7 hPa | 0.76 mm | - | - | - |
| 1787825746 | 21.11° C | 85% | 1007.7 hPa | 1.02 mm | - | - | - |
| 1787825386 | 21.11° C | 88% | 1007.8 hPa | 1.02 mm | - | - | - |
| 1787825025 | 21.11° C | 90% | 1007.8 hPa | 1.02 mm | - | - | - |
| 1787824665 | 21.11° C | 92% | 1007.7 hPa | 1.02 mm | - | - | - |
| 1787824304 | 21.11° C | 92% | 1007.7 hPa | 1.02 mm | - | - | - |
| 1787823944 | 21.11° C | 93% | 1007.6 hPa | 1.02 mm | - | - | - |
| 1787823584 | 20.56° C | 93% | 1007.6 hPa | 1.02 mm | - | - | - |
| 1787823223 | 20.56° C | 93% | 1007.4 hPa | 1.02 mm | - | - | - |
* Rain latest hour (hover to see other rain measurements)
** Current wind speed in m/s (hover to see current wind gust speed)